Find Starlink 31171

NORAD ID: 58834 Int'l Des: 2024-017 Owner: SPXS Country: US Constellation: starlink operational
LEOCIRCULAR

現在のビュー

3D地球を読み込み中...

About Starlink 31171

Starlink 31171 (NORAD 58834) is a starlink constellation satellite (v2 mini) launched Jan 24, 2024 by SPXS of US. It operates in LEO, CIRCULAR orbit with a mass of 730.00 kg.

Starlink 31171について

説明を読み込み中...

次回通過

Passes for default location (London). Set your location on the main map for personalized predictions.

高度履歴

Loading altitude history...

軌道要素

1 58834U 24017J 26167.06405328 .00000410 00000-0 25974-4 0 9998
2 58834 53.1603 83.8262 0001041 85.0053 275.1066 15.30195432135441
Epoch: Jun 16, 2026 • Age: 8 hours

現在のステータス

高度 479.0 km
速度 7.63 km/s
衛星直下点 43.73°N, 163.57°E
打ち上げ日 Jan 24, 2024
運用期間 2.3 years
タイプ internet

技術仕様

分類 Payload
質量 730.00 kg
乾燥質量 700.00 kg
総質量 730.00 kg
長さ 0.30 m
直径 4.10 m
スパン 29.00 m
形状 Box + pan
製造者 SPXS
バスタイプ Starlink V2M
フェーズステータス In Orbit
所有者/国 SPXS/US

Most Searched